Zurück zum Katalog

CZ-6A DEB

AktivPO
NORAD 54917·DEBRIS·🇨🇳 China

Gestartet Nov 11, 2022 von Taiyuan Satellite Launch Center

Loading…

Nächste Überflüge (nächste 24 Stunden)

TLE

AktuellSource: Space-Track

Epoche: Sep 13, 2026, 04:25 UTC

1 54917U 22151RE  26256.18420450  .00006072  00000-0  85456-3 0  9998
2 54917  98.6348 334.0700 0065835 351.0182   8.9842 14.76238825200245

Verfolge CZ-6A DEB in Echtzeit mit AllMySat

Download on the App Store